| time (UTC) | temp F | wind direction | speed MPH | gust MPH | rain 1hr in | rain 24hr in | rain mn in | humidity % | barometer mb |
| 20260507040415 | 48 | 222 | 0.0 | 1.0 | 0.00 | 0.00 | 0.00 | 99 | 1035.1 |
| 20260507035911 | 48 | 257 | 1.0 | 1.0 | 0.00 | 0.35 | 0.35 | 99 | 1035.0 |
| 20260507035408 | 49 | 195 | 1.0 | 1.0 | 0.00 | 0.35 | 0.35 | 99 | 1035.0 |
| 20260507034905 | 49 | 191 | 0.0 | 0.0 | 0.00 | 0.35 | 0.35 | 99 | 1034.8 |
| 20260507034401 | 49 | 207 | 0.0 | 1.0 | 0.00 | 0.35 | 0.35 | 99 | 1034.9 |
| 20260507033859 | 49 | 195 | 1.0 | 1.0 | 0.00 | 0.35 | 0.35 | 99 | 1034.5 |
| 20260507033357 | 50 | 202 | 0.0 | 1.0 | 0.00 | 0.35 | 0.35 | 99 | 1034.7 |
| 20260507032854 | 50 | 201 | 1.0 | 1.0 | 0.07 | 0.35 | 0.35 | 99 | 1035.0 |
| 20260507032351 | 51 | 223 | 1.0 | 1.0 | 0.19 | 0.35 | 0.35 | 99 | 1034.9 |
| 20260507031847 | 51 | 187 | 2.0 | 2.0 | 0.19 | 0.34 | 0.34 | 99 | 1034.9 |
| 20260507031344 | 51 | 281 | 1.0 | 2.0 | 0.12 | 0.32 | 0.32 | 99 | 1034.9 |
| 20260507030840 | 51 | 192 | 0.0 | 0.0 | 0.05 | 0.31 | 0.31 | 99 | 1035.2 |
| 20260507030338 | 52 | 234 | 1.0 | 2.0 | 0.00 | 0.30 | 0.30 | 99 | 1035.0 |
| 20260507025834 | 53 | 203 | 1.0 | 1.0 | 0.07 | 0.30 | 0.30 | 99 | 1034.9 |
| 20260507025332 | 54 | 203 | 2.0 | 3.0 | 0.07 | 0.30 | 0.30 | 99 | 1034.6 |
| 20260507024830 | 55 | 223 | 1.0 | 2.0 | 0.05 | 0.29 | 0.29 | 99 | 1035.1 |
| 20260507024327 | 55 | 206 | 0.0 | 0.0 | 0.05 | 0.29 | 0.29 | 99 | 1034.7 |
| 20260507023822 | 55 | 234 | 1.0 | 1.0 | 0.07 | 0.28 | 0.28 | 99 | 1034.6 |
| 20260507023319 | 55 | 197 | 0.0 | 0.0 | 0.07 | 0.28 | 0.28 | 99 | 1034.5 |
| 20260507022817 | 55 | 194 | 0.0 | 0.0 | 0.00 | 0.27 | 0.27 | 99 | 1034.4 |
| 20260507022313 | 56 | 195 | 1.0 | 1.0 | 0.00 | 0.27 | 0.27 | 99 | 1034.4 |
| 20260507021809 | 56 | 207 | 0.0 | 1.0 | 0.00 | 0.27 | 0.27 | 99 | 1034.3 |
| 20260507021305 | 56 | 198 | 0.0 | 0.0 | 0.00 | 0.27 | 0.27 | 99 | 1034.1 |
| 20260507020803 | 57 | 197 | 1.0 | 2.0 | 0.05 | 0.27 | 0.27 | 99 | 1034.0 |
| 20260507020259 | 58 | 202 | 2.0 | 2.0 | 0.05 | 0.27 | 0.27 | 99 | 1034.1 |
| 20260507015757 | 58 | 201 | 0.0 | 0.0 | 0.12 | 0.26 | 0.26 | 99 | 1034.0 |
| 20260507015254 | 58 | 198 | 0.0 | 0.0 | 0.19 | 0.26 | 0.26 | 99 | 1034.0 |
| 20260507014751 | 58 | 196 | 0.0 | 1.0 | 0.07 | 0.24 | 0.24 | 99 | 1033.9 |
| 20260507014247 | 58 | 185 | 1.0 | 2.0 | 0.00 | 0.23 | 0.23 | 99 | 1033.8 |
| 20260507013744 | 58 | 143 | 0.0 | 1.0 | 0.00 | 0.23 | 0.23 | 99 | 1034.0 |
| 20260507013241 | 58 | 177 | 1.0 | 1.0 | 0.00 | 0.23 | 0.23 | 99 | 1034.0 |
| 20260507012739 | 58 | 224 | 1.0 | 1.0 | 0.00 | 0.23 | 0.23 | 99 | 1033.9 |
| 20260507012234 | 58 | 190 | 0.0 | 0.0 | 0.00 | 0.23 | 0.23 | 99 | 1033.7 |
| 20260507011732 | 58 | 203 | 0.0 | 0.0 | 0.00 | 0.23 | 0.23 | 99 | 1033.8 |
| 20260507011228 | 58 | 175 | 1.0 | 2.0 | 0.00 | 0.23 | 0.23 | 99 | 1034.1 |
| 20260507010728 | 58 | 234 | 3.0 | 3.0 | 0.00 | 0.23 | 0.23 | 99 | 1033.9 |
| 20260507010224 | 58 | 189 | 0.0 | 0.0 | 0.00 | 0.23 | 0.23 | 99 | 1033.9 |
| 20260507005722 | 58 | 183 | 1.0 | 1.0 | 0.00 | 0.23 | 0.23 | 99 | 1034.1 |
| 20260507005218 | 58 | 196 | 0.0 | 1.0 | 0.00 | 0.23 | 0.23 | 99 | 1033.8 |
| 20260507004714 | 58 | 207 | 1.0 | 2.0 | 0.00 | 0.23 | 0.23 | 99 | 1034.0 |
| 20260507004212 | 58 | 185 | 0.0 | 0.0 | 0.00 | 0.23 | 0.23 | 99 | 1033.8 |
| 20260507003708 | 58 | 206 | 1.0 | 1.0 | 0.00 | 0.23 | 0.23 | 99 | 1033.9 |
| 20260507003203 | 58 | 195 | 0.0 | 0.0 | 0.00 | 0.23 | 0.23 | 99 | 1033.7 |
| 20260507002700 | 58 | 191 | 0.0 | 1.0 | 0.00 | 0.23 | 0.23 | 99 | 1033.8 |
| 20260507002156 | 58 | 194 | 1.0 | 2.0 | 0.00 | 0.23 | 0.23 | 99 | 1033.8 |
| 20260507001653 | 58 | 211 | 0.0 | 0.0 | 0.00 | 0.23 | 0.23 | 99 | 1034.0 |
| 20260507001150 | 58 | 195 | 0.0 | 0.0 | 0.00 | 0.23 | 0.23 | 99 | 1033.8 |
| 20260507000646 | 58 | 177 | 0.0 | 1.0 | 0.00 | 0.23 | 0.23 | 99 | 1033.8 |
| 20260507000142 | 58 | 216 | 1.0 | 1.0 | 0.00 | 0.23 | 0.23 | 99 | 1033.6 |
| 20260506235639 | 58 | 210 | 0.0 | 1.0 | 0.00 | 0.23 | 0.23 | 99 | 1033.6 |
| 20260506235139 | 58 | 194 | 1.0 | 1.0 | 0.00 | 0.23 | 0.23 | 99 | 1033.5 |
| 20260506234637 | 58 | 187 | 1.0 | 1.0 | 0.00 | 0.23 | 0.23 | 99 | 1033.4 |
| 20260506234134 | 58 | 191 | 2.0 | 3.0 | 0.00 | 0.23 | 0.23 | 99 | 1033.5 |
| 20260506233631 | 58 | 202 | 2.0 | 2.0 | 0.00 | 0.23 | 0.23 | 99 | 1033.6 |
| 20260506233128 | 58 | 162 | 0.0 | 2.0 | 0.00 | 0.23 | 0.23 | 99 | 1033.5 |
| 20260506232624 | 58 | 169 | 2.0 | 3.0 | 0.00 | 0.23 | 0.23 | 99 | 1033.6 |
| 20260506232120 | 58 | 236 | 2.0 | 2.0 | 0.00 | 0.23 | 0.23 | 99 | 1033.6 |
| 20260506231617 | 58 | 217 | 1.0 | 1.0 | 0.00 | 0.23 | 0.23 | 99 | 1033.7 |
| 20260506231115 | 58 | 179 | 2.0 | 2.0 | 0.00 | 0.23 | 0.23 | 99 | 1033.7 |
| 20260506230612 | 58 | 180 | 3.0 | 5.0 | 0.00 | 0.23 | 0.23 | 99 | 1033.7 |
| 20260506230109 | 58 | 231 | 3.0 | 5.0 | 0.00 | 0.23 | 0.23 | 99 | 1033.5 |
| 20260506225605 | 58 | 186 | 0.0 | 1.0 | 0.00 | 0.23 | 0.23 | 99 | 1033.8 |
| 20260506225102 | 58 | 190 | 0.0 | 0.0 | 0.00 | 0.23 | 0.23 | 99 | 1033.8 |
| 20260506224559 | 58 | 167 | 1.0 | 1.0 | 0.00 | 0.23 | 0.23 | 99 | 1033.6 |
| 20260506224055 | 58 | 193 | 0.0 | 0.0 | 0.00 | 0.23 | 0.23 | 99 | 1033.7 |
| 20260506223551 | 58 | 229 | 3.0 | 5.0 | 0.00 | 0.23 | 0.23 | 99 | 1033.8 |
| 20260506223048 | 58 | 160 | 2.0 | 3.0 | 0.00 | 0.23 | 0.23 | 99 | 1033.9 |
| 20260506222544 | 58 | 192 | 0.0 | 0.0 | 0.00 | 0.23 | 0.23 | 99 | 1033.9 |
| 20260506222041 | 58 | 194 | 1.0 | 2.0 | 0.00 | 0.23 | 0.23 | 99 | 1034.0 |
| 20260506221539 | 58 | 183 | 1.0 | 1.0 | 0.00 | 0.23 | 0.23 | 99 | 1034.0 |
| 20260506221036 | 58 | 215 | 2.0 | 3.0 | 0.00 | 0.23 | 0.23 | 99 | 1034.0 |
| 20260506220532 | 59 | 276 | 4.0 | 8.0 | 0.00 | 0.23 | 0.23 | 99 | 1033.9 |
| 20260506220028 | 59 | 240 | 3.0 | 6.0 | 0.00 | 0.23 | 0.23 | 99 | 1033.9 |
| 20260506215525 | 59 | 283 | 2.0 | 2.0 | 0.00 | 0.23 | 0.23 | 99 | 1034.0 |
| 20260506215020 | 59 | 220 | 1.0 | 2.0 | 0.00 | 0.23 | 0.23 | 99 | 1033.9 |
| 20260506214518 | 59 | 192 | 0.0 | 0.0 | 0.00 | 0.23 | 0.23 | 99 | 1033.9 |
| 20260506214015 | 59 | 208 | 2.0 | 3.0 | 0.05 | 0.23 | 0.23 | 99 | 1033.9 |
| 20260506213513 | 59 | 239 | 1.0 | 1.0 | 0.05 | 0.23 | 0.23 | 99 | 1034.0 |
| 20260506213010 | 59 | 248 | 3.0 | 3.0 | 0.00 | 0.22 | 0.22 | 99 | 1034.2 |
| 20260506212506 | 59 | 273 | 2.0 | 2.0 | 0.00 | 0.22 | 0.22 | 99 | 1034.1 |
| 20260506212001 | 59 | 225 | 3.0 | 5.0 | 0.00 | 0.22 | 0.22 | 99 | 1034.3 |
| 20260506211457 | 59 | 184 | 1.0 | 2.0 | 0.07 | 0.22 | 0.22 | 99 | 1034.1 |
| 20260506210955 | 59 | 222 | 3.0 | 5.0 | 0.07 | 0.22 | 0.22 | 99 | 1034.2 |
| 20260506210451 | 59 | 191 | 1.0 | 2.0 | 0.00 | 0.21 | 0.21 | 99 | 1034.4 |
| 20260506205948 | 59 | 201 | 1.0 | 1.0 | 0.00 | 0.21 | 0.21 | 99 | 1034.3 |
| 20260506205444 | 60 | 173 | 1.0 | 1.0 | 0.00 | 0.21 | 0.21 | 99 | 1034.2 |
| 20260506204940 | 60 | 208 | 2.0 | 3.0 | 0.00 | 0.21 | 0.21 | 99 | 1034.2 |
| 20260506204438 | 60 | 254 | 2.0 | 2.0 | 0.07 | 0.21 | 0.21 | 99 | 1034.2 |
| 20260506203935 | 60 | 180 | 3.0 | 5.0 | 0.07 | 0.21 | 0.21 | 99 | 1034.4 |
| 20260506203432 | 60 | 253 | 2.0 | 3.0 | 0.00 | 0.20 | 0.20 | 99 | 1034.5 |
| 20260506202929 | 60 | 8 | 4.0 | 6.0 | 0.00 | 0.20 | 0.20 | 99 | 1034.5 |
| 20260506202427 | 60 | 178 | 0.0 | 0.0 | 0.05 | 0.20 | 0.20 | 99 | 1034.8 |
| 20260506201923 | 60 | 211 | 3.0 | 5.0 | 0.05 | 0.20 | 0.20 | 99 | 1034.7 |
| 20260506201421 | 60 | 174 | 0.0 | 1.0 | 0.07 | 0.19 | 0.19 | 99 | 1034.8 |
| 20260506200917 | 60 | 191 | 0.0 | 0.0 | 0.12 | 0.19 | 0.19 | 99 | 1034.8 |
| 20260506200413 | 60 | 196 | 1.0 | 1.0 | 0.05 | 0.18 | 0.18 | 99 | 1034.8 |
| 20260506195910 | 60 | 191 | 0.0 | 0.0 | 0.12 | 0.18 | 0.18 | 99 | 1034.8 |
| 20260506195407 | 60 | 223 | 0.0 | 1.0 | 0.07 | 0.17 | 0.17 | 99 | 1034.9 |
| 20260506194904 | 60 | 219 | 0.0 | 1.0 | 0.00 | 0.16 | 0.16 | 99 | 1034.7 |
| 20260506194401 | 60 | 194 | 0.0 | 0.0 | 0.00 | 0.16 | 0.16 | 99 | 1034.7 |
| 20260506193858 | 60 | 197 | 0.0 | 1.0 | 0.00 | 0.16 | 0.16 | 99 | 1034.8 |
| 20260506193354 | 60 | 151 | 1.0 | 2.0 | 0.00 | 0.16 | 0.16 | 99 | 1034.6 |
| 20260506192851 | 60 | 183 | 1.0 | 2.0 | 0.05 | 0.16 | 0.16 | 99 | 1034.8 |
| 20260506192348 | 60 | 224 | 2.0 | 2.0 | 0.05 | 0.16 | 0.16 | 99 | 1034.8 |
| 20260506191845 | 60 | 177 | 1.0 | 1.0 | 0.00 | 0.15 | 0.15 | 99 | 1034.9 |
| 20260506191341 | 60 | 197 | 0.0 | 1.0 | 0.00 | 0.15 | 0.15 | 99 | 1034.8 |
| 20260506190838 | 60 | 190 | 0.0 | 0.0 | 0.07 | 0.15 | 0.15 | 99 | 1034.7 |
| 20260506190334 | 60 | 188 | 0.0 | 0.0 | 0.07 | 0.15 | 0.15 | 99 | 1035.0 |
| 20260506185831 | 60 | 199 | 1.0 | 1.0 | 0.05 | 0.14 | 0.14 | 99 | 1035.5 |
| 20260506185328 | 60 | 241 | 0.0 | 1.0 | 0.12 | 0.14 | 0.14 | 99 | 1035.4 |
| 20260506184825 | 60 | 190 | 0.0 | 0.0 | 0.12 | 0.13 | 0.13 | 99 | 1035.4 |
| 20260506184322 | 60 | 192 | 0.0 | 0.0 | 0.12 | 0.12 | 0.12 | 99 | 1035.7 |
| 20260506183820 | 60 | 192 | 0.0 | 1.0 | 0.12 | 0.11 | 0.11 | 99 | 1035.8 |
| 20260506183314 | 61 | 206 | 0.0 | 0.0 | 0.12 | 0.10 | 0.10 | 99 | 1035.6 |
| 20260506182812 | 61 | 200 | 0.0 | 0.0 | 0.14 | 0.09 | 0.09 | 99 | 1035.7 |
| 20260506182309 | 61 | 198 | 0.0 | 0.0 | 0.12 | 0.08 | 0.08 | 98 | 1035.8 |
| 20260506181807 | 61 | 185 | 0.0 | 0.0 | 0.12 | 0.07 | 0.07 | 98 | 1035.7 |
| 20260506181305 | 61 | 190 | 0.0 | 1.0 | 0.12 | 0.06 | 0.06 | 97 | 1036.0 |
| 20260506180802 | 62 | 192 | 0.0 | 0.0 | 0.12 | 0.05 | 0.05 | 97 | 1036.1 |
| 20260506180257 | 62 | 192 | 0.0 | 0.0 | 0.12 | 0.04 | 0.04 | 95 | 1035.9 |
| 20260506175754 | 63 | 181 | 1.0 | 5.0 | 0.12 | 0.03 | 0.03 | 93 | 1035.8 |
| 20260506175251 | 64 | 181 | 1.0 | 2.0 | 0.12 | 0.02 | 0.02 | 89 | 1036.0 |
| 20260506174748 | 66 | 186 | 1.0 | 1.0 | 0.00 | 0.00 | 0.00 | 85 | 1035.8 |
| 20260506174245 | 67 | 126 | 4.0 | 7.0 | 0.00 | 0.00 | 0.00 | 80 | 1035.8 |
| 20260506173743 | 67 | 244 | 1.0 | 1.0 | 0.00 | 0.00 | 0.00 | 78 | 1035.5 |
| 20260506173240 | 68 | 205 | 1.0 | 1.0 | 0.00 | 0.00 | 0.00 | 74 | 1035.5 |
| 20260506172736 | 68 | 194 | 2.0 | 3.0 | 0.00 | 0.00 | 0.00 | 71 | 1035.5 |
| 20260506172233 | 68 | 238 | 1.0 | 1.0 | 0.00 | 0.00 | 0.00 | 72 | 1035.4 |
| 20260506171731 | 69 | 174 | 1.0 | 1.0 | 0.00 | 0.00 | 0.00 | 71 | 1035.4 |
| 20260506171228 | 68 | 212 | 3.0 | 3.0 | 0.00 | 0.00 | 0.00 | 71 | 1035.3 |
| 20260506170726 | 69 | 173 | 1.0 | 2.0 | 0.00 | 0.00 | 0.00 | 71 | 1035.5 |
| 20260506170222 | 69 | 198 | 5.0 | 7.0 | 0.00 | 0.00 | 0.00 | 70 | 1035.6 |
| 20260506165720 | 69 | 232 | 2.0 | 5.0 | 0.00 | 0.00 | 0.00 | 70 | 1035.4 |
| 20260506165217 | 69 | 309 | 4.0 | 5.0 | 0.00 | 0.00 | 0.00 | 70 | 1035.6 |
| 20260506164714 | 69 | 234 | 1.0 | 2.0 | 0.00 | 0.00 | 0.00 | 70 | 1035.6 |
| 20260506164211 | 69 | 201 | 1.0 | 1.0 | 0.00 | 0.00 | 0.00 | 71 | 1035.9 |
| 20260506163708 | 69 | 187 | 3.0 | 5.0 | 0.00 | 0.00 | 0.00 | 70 | 1035.7 |
| 20260506163203 | 69 | 165 | 3.0 | 3.0 | 0.00 | 0.00 | 0.00 | 70 | 1036.1 |
| 20260506162659 | 69 | 179 | 0.0 | 1.0 | 0.00 | 0.00 | 0.00 | 69 | 1035.8 |
| 20260506162157 | 69 | 284 | 0.0 | 1.0 | 0.00 | 0.00 | 0.00 | 70 | 1036.0 |
| 20260506161654 | 68 | 190 | 0.0 | 0.0 | 0.00 | 0.00 | 0.00 | 72 | 1036.2 |
| 20260506161150 | 68 | 192 | 1.0 | 1.0 | 0.00 | 0.00 | 0.00 | 72 | 1036.4 |
| 20260506160648 | 68 | 186 | 1.0 | 1.0 | 0.00 | 0.00 | 0.00 | 73 | 1036.5 |
| 20260506160145 | 68 | 180 | 3.0 | 3.0 | 0.00 | 0.00 | 0.00 | 72 | 1036.6 |
| 20260506155643 | 68 | 223 | 2.0 | 3.0 | 0.00 | 0.00 | 0.00 | 73 | 1036.7 |
| 20260506155140 | 67 | 193 | 2.0 | 2.0 | 0.00 | 0.00 | 0.00 | 75 | 1037.0 |
| 20260506153242 | 67 | 188 | 1.0 | 2.0 | 0.00 | 0.00 | 0.00 | 75 | 1037.0 |
| 20260506152739 | 67 | 212 | 0.0 | 1.0 | 0.00 | 0.00 | 0.00 | 75 | 1037.1 |
| 20260506152236 | 67 | 176 | 1.0 | 1.0 | 0.00 | 0.00 | 0.00 | 76 | 1037.4 |
| 20260506151735 | 67 | 196 | 0.0 | 1.0 | 0.00 | 0.00 | 0.00 | 76 | 1037.5 |
| 20260506151231 | 67 | 204 | 0.0 | 0.0 | 0.00 | 0.00 | 0.00 | 76 | 1037.6 |
| 20260506150728 | 67 | 242 | 2.0 | 2.0 | 0.00 | 0.00 | 0.00 | 76 | 1037.1 |
| 20260506150225 | 67 | 301 | 3.0 | 3.0 | 0.00 | 0.00 | 0.00 | 75 | 1037.0 |
| 20260506145722 | 67 | 63 | 1.0 | 1.0 | 0.00 | 0.00 | 0.00 | 76 | 1037.3 |
| 20260506145219 | 67 | 202 | 0.0 | 1.0 | 0.00 | 0.00 | 0.00 | 76 | 1037.5 |
| 20260506144716 | 67 | 185 | 2.0 | 3.0 | 0.00 | 0.00 | 0.00 | 76 | 1037.4 |
| 20260506144213 | 67 | 197 | 3.0 | 3.0 | 0.00 | 0.00 | 0.00 | 76 | 1036.9 |
| 20260506143710 | 66 | 246 | 2.0 | 3.0 | 0.00 | 0.00 | 0.00 | 77 | 1037.3 |
| 20260506143208 | 67 | 205 | 3.0 | 5.0 | 0.00 | 0.00 | 0.00 | 77 | 1037.0 |
| 20260506142707 | 66 | 201 | 1.0 | 1.0 | 0.00 | 0.00 | 0.00 | 78 | 1037.0 |
| 20260506142204 | 66 | 242 | 4.0 | 7.0 | 0.00 | 0.00 | 0.00 | 78 | 1037.4 |
| 20260506141702 | 65 | 192 | 0.0 | 1.0 | 0.00 | 0.00 | 0.00 | 78 | 1037.1 |
| 20260506141200 | 65 | 207 | 1.0 | 1.0 | 0.00 | 0.00 | 0.00 | 79 | 1036.7 |
| 20260506140657 | 65 | 205 | 0.0 | 0.0 | 0.00 | 0.00 | 0.00 | 79 | 1037.1 |
| 20260506140154 | 65 | 171 | 2.0 | 2.0 | 0.00 | 0.00 | 0.00 | 80 | 1036.9 |
| 20260506135651 | 65 | 304 | 3.0 | 3.0 | 0.00 | 0.00 | 0.00 | 80 | 1037.0 |
| 20260506135147 | 64 | 194 | 0.0 | 0.0 | 0.00 | 0.00 | 0.00 | 81 | 1037.0 |
| 20260506134644 | 64 | 215 | 1.0 | 1.0 | 0.00 | 0.00 | 0.00 | 82 | 1037.3 |
| 20260506134140 | 64 | 186 | 2.0 | 2.0 | 0.00 | 0.00 | 0.00 | 82 | 1037.3 |
| 20260506133637 | 63 | 198 | 0.0 | 0.0 | 0.00 | 0.00 | 0.00 | 83 | 1037.1 |
| 20260506133134 | 63 | 174 | 2.0 | 2.0 | 0.00 | 0.00 | 0.00 | 83 | 1037.4 |
| 20260506132632 | 63 | 181 | 0.0 | 1.0 | 0.00 | 0.00 | 0.00 | 83 | 1037.4 |
| 20260506132128 | 63 | 180 | 1.0 | 2.0 | 0.00 | 0.00 | 0.00 | 84 | 1037.6 |
| 20260506131626 | 62 | 189 | 0.0 | 0.0 | 0.00 | 0.00 | 0.00 | 84 | 1037.5 |
| 20260506131121 | 62 | 223 | 1.0 | 2.0 | 0.00 | 0.00 | 0.00 | 84 | 1037.4 |
| 20260506130619 | 62 | 199 | 2.0 | 3.0 | 0.00 | 0.00 | 0.00 | 84 | 1037.5 |
| 20260506130116 | 62 | 204 | 0.0 | 1.0 | 0.00 | 0.00 | 0.00 | 84 | 1037.6 |
| 20260506125614 | 62 | 196 | 0.0 | 1.0 | 0.00 | 0.00 | 0.00 | 84 | 1037.7 |
| 20260506125112 | 62 | 208 | 1.0 | 1.0 | 0.00 | 0.00 | 0.00 | 84 | 1037.5 |
| 20260506124609 | 62 | 188 | 1.0 | 1.0 | 0.00 | 0.00 | 0.00 | 84 | 1037.5 |
| 20260506124107 | 62 | 278 | 2.0 | 2.0 | 0.00 | 0.00 | 0.00 | 85 | 1037.6 |
| 20260506123604 | 62 | 193 | 1.0 | 1.0 | 0.00 | 0.00 | 0.00 | 85 | 1037.7 |
| 20260506123103 | 61 | 241 | 2.0 | 2.0 | 0.00 | 0.00 | 0.00 | 85 | 1037.6 |
| 20260506122559 | 61 | 177 | 2.0 | 3.0 | 0.00 | 0.00 | 0.00 | 85 | 1037.5 |
| 20260506122057 | 61 | 201 | 1.0 | 2.0 | 0.00 | 0.00 | 0.00 | 86 | 1037.6 |
| 20260506121554 | 61 | 206 | 2.0 | 2.0 | 0.00 | 0.00 | 0.00 | 85 | 1037.4 |
| 20260506121050 | 61 | 289 | 2.0 | 2.0 | 0.00 | 0.00 | 0.00 | 85 | 1037.8 |
| 20260506120549 | 61 | 159 | 3.0 | 6.0 | 0.00 | 0.00 | 0.00 | 85 | 1037.7 |
| 20260506120046 | 61 | 186 | 0.0 | 1.0 | 0.00 | 0.00 | 0.00 | 86 | 1037.9 |
| 20260506115544 | 60 | 271 | 1.0 | 2.0 | 0.00 | 0.00 | 0.00 | 86 | 1037.7 |
| 20260506115042 | 60 | 244 | 2.0 | 5.0 | 0.00 | 0.00 | 0.00 | 87 | 1037.6 |
| 20260506114539 | 60 | 212 | 0.0 | 1.0 | 0.00 | 0.00 | 0.00 | 87 | 1037.9 |
| 20260506114037 | 60 | 196 | 0.0 | 0.0 | 0.00 | 0.00 | 0.00 | 86 | 1038.1 |
| 20260506113535 | 60 | 349 | 2.0 | 2.0 | 0.00 | 0.00 | 0.00 | 87 | 1037.8 |
| 20260506113032 | 60 | 218 | 4.0 | 5.0 | 0.00 | 0.00 | 0.00 | 87 | 1038.0 |
| 20260506112528 | 60 | 289 | 3.0 | 5.0 | 0.00 | 0.00 | 0.00 | 87 | 1038.0 |
| 20260506112026 | 60 | 181 | 1.0 | 1.0 | 0.00 | 0.00 | 0.00 | 88 | 1037.8 |
| 20260506111524 | 59 | 209 | 1.0 | 1.0 | 0.00 | 0.00 | 0.00 | 88 | 1038.1 |
| 20260506111021 | 59 | 225 | 1.0 | 1.0 | 0.00 | 0.00 | 0.00 | 88 | 1038.1 |
| 20260506110518 | 59 | 191 | 1.0 | 1.0 | 0.00 | 0.00 | 0.00 | 89 | 1038.0 |
| 20260506110015 | 59 | 184 | 0.0 | 1.0 | 0.00 | 0.00 | 0.00 | 89 | 1037.9 |
| 20260506105511 | 58 | 192 | 0.0 | 0.0 | 0.00 | 0.00 | 0.00 | 90 | 1038.2 |
| 20260506105009 | 58 | 190 | 0.0 | 0.0 | 0.00 | 0.00 | 0.00 | 90 | 1038.1 |
| 20260506104507 | 57 | 187 | 0.0 | 0.0 | 0.00 | 0.00 | 0.00 | 91 | 1038.1 |
| 20260506104005 | 57 | 182 | 1.0 | 1.0 | 0.00 | 0.00 | 0.00 | 91 | 1038.0 |
| 20260506103501 | 57 | 212 | 0.0 | 0.0 | 0.00 | 0.00 | 0.00 | 91 | 1038.2 |
| 20260506102958 | 57 | 186 | 0.0 | 0.0 | 0.00 | 0.00 | 0.00 | 92 | 1037.9 |
| 20260506102456 | 57 | 163 | 0.0 | 0.0 | 0.00 | 0.00 | 0.00 | 91 | 1037.9 |
| 20260506101953 | 58 | 190 | 1.0 | 2.0 | 0.00 | 0.00 | 0.00 | 90 | 1038.0 |
| 20260506101449 | 57 | 190 | 0.0 | 0.0 | 0.00 | 0.00 | 0.00 | 90 | 1038.0 |
| 20260506100947 | 57 | 244 | 3.0 | 3.0 | 0.00 | 0.00 | 0.00 | 91 | 1038.0 |
| 20260506100446 | 57 | 183 | 0.0 | 0.0 | 0.00 | 0.00 | 0.00 | 91 | 1038.0 |
| 20260506095943 | 57 | 187 | 0.0 | 0.0 | 0.00 | 0.00 | 0.00 | 91 | 1037.9 |
| 20260506095442 | 57 | 163 | 0.0 | 0.0 | 0.00 | 0.00 | 0.00 | 91 | 1037.9 |
| 20260506094937 | 57 | 200 | 1.0 | 1.0 | 0.00 | 0.00 | 0.00 | 91 | 1037.8 |
| 20260506094436 | 56 | 213 | 0.0 | 1.0 | 0.00 | 0.00 | 0.00 | 92 | 1037.9 |
| 20260506093933 | 56 | 191 | 0.0 | 0.0 | 0.00 | 0.00 | 0.00 | 91 | 1038.0 |
| 20260506093431 | 56 | 195 | 0.0 | 1.0 | 0.00 | 0.00 | 0.00 | 91 | 1038.0 |
| 20260506092928 | 55 | 191 | 0.0 | 1.0 | 0.00 | 0.00 | 0.00 | 92 | 1037.9 |
| 20260506092426 | 55 | 182 | 0.0 | 0.0 | 0.00 | 0.00 | 0.00 | 93 | 1037.8 |
| 20260506091922 | 55 | 185 | 0.0 | 0.0 | 0.00 | 0.00 | 0.00 | 93 | 1038.0 |
| 20260506091421 | 54 | 186 | 0.0 | 0.0 | 0.00 | 0.00 | 0.00 | 93 | 1037.8 |
| 20260506090918 | 54 | 191 | 0.0 | 0.0 | 0.00 | 0.00 | 0.00 | 94 | 1037.9 |
| 20260506090415 | 54 | 184 | 0.0 | 0.0 | 0.00 | 0.00 | 0.00 | 94 | 1037.8 |
| 20260506085912 | 54 | 188 | 0.0 | 0.0 | 0.00 | 0.00 | 0.00 | 94 | 1038.0 |
| 20260506085409 | 54 | 183 | 0.0 | 0.0 | 0.00 | 0.00 | 0.00 | 94 | 1037.8 |
| 20260506084905 | 55 | 184 | 0.0 | 0.0 | 0.00 | 0.00 | 0.00 | 94 | 1038.0 |
| 20260506084402 | 55 | 184 | 0.0 | 0.0 | 0.00 | 0.00 | 0.00 | 93 | 1038.1 |
| 20260506083858 | 55 | 190 | 0.0 | 0.0 | 0.00 | 0.00 | 0.00 | 93 | 1037.8 |
| 20260506083356 | 55 | 186 | 0.0 | 0.0 | 0.00 | 0.00 | 0.00 | 93 | 1038.2 |
| 20260506082853 | 55 | 185 | 0.0 | 0.0 | 0.00 | 0.00 | 0.00 | 93 | 1038.0 |
| 20260506082349 | 55 | 184 | 0.0 | 0.0 | 0.00 | 0.00 | 0.00 | 93 | 1037.9 |
| 20260506081845 | 55 | 184 | 0.0 | 0.0 | 0.00 | 0.00 | 0.00 | 93 | 1037.8 |
| 20260506081344 | 55 | 185 | 0.0 | 0.0 | 0.00 | 0.00 | 0.00 | 93 | 1038.0 |
| 20260506080841 | 55 | 184 | 0.0 | 0.0 | 0.00 | 0.00 | 0.00 | 93 | 1037.9 |
| 20260506080337 | 55 | 179 | 0.0 | 1.0 | 0.00 | 0.00 | 0.00 | 92 | 1037.9 |
| 20260506073322 | 57 | 197 | 0.0 | 0.0 | 0.00 | 0.00 | 0.00 | 88 | 1037.7 |
| 20260506072818 | 57 | 192 | 0.0 | 0.0 | 0.00 | 0.00 | 0.00 | 88 | 1037.8 |
| 20260506072316 | 57 | 196 | 0.0 | 0.0 | 0.00 | 0.00 | 0.00 | 88 | 1037.7 |
| 20260506071814 | 58 | 197 | 0.0 | 0.0 | 0.00 | 0.00 | 0.00 | 86 | 1037.7 |
| 20260506071312 | 58 | 201 | 0.0 | 0.0 | 0.00 | 0.00 | 0.00 | 85 | 1037.6 |
| 20260506070808 | 59 | 202 | 0.0 | 0.0 | 0.00 | 0.00 | 0.00 | 84 | 1037.4 |
| 20260506070305 | 59 | 199 | 0.0 | 0.0 | 0.00 | 0.00 | 0.00 | 84 | 1037.5 |
| 20260506062242 | 60 | 218 | 1.0 | 1.0 | 0.00 | 0.00 | 0.00 | 77 | 1037.4 |
| 20260506061738 | 61 | 209 | 1.0 | 1.0 | 0.00 | 0.00 | 0.00 | 78 | 1037.3 |
| 20260506061236 | 60 | 223 | 1.0 | 1.0 | 0.00 | 0.00 | 0.00 | 77 | 1037.4 |
| 20260506060734 | 61 | 214 | 1.0 | 1.0 | 0.00 | 0.00 | 0.00 | 78 | 1037.3 |
| 20260506060231 | 61 | 210 | 3.0 | 3.0 | 0.00 | 0.00 | 0.00 | 77 | 1037.6 |
| 20260506051203 | 61 | 191 | 1.0 | 2.0 | 0.00 | 0.00 | 0.00 | 78 | 1037.8 |
| 20260506050701 | 61 | 209 | 1.0 | 1.0 | 0.00 | 0.00 | 0.00 | 77 | 1037.8 |
| 20260506050158 | 61 | 191 | 0.0 | 1.0 | 0.00 | 0.00 | 0.00 | 77 | 1037.8 |
| 20260506044649 | 61 | 312 | 2.0 | 2.0 | 0.00 | 0.00 | 0.00 | 76 | 1037.8 |
| 20260506044145 | 61 | 207 | 0.0 | 1.0 | 0.00 | 0.00 | 0.00 | 76 | 1037.7 |
| 20260506043643 | 61 | 179 | 0.0 | 1.0 | 0.00 | 0.00 | 0.00 | 77 | 1037.8 |
| 20260506043141 | 61 | 176 | 0.0 | 1.0 | 0.00 | 0.00 | 0.00 | 79 | 1037.8 |
| 20260506042640 | 61 | 196 | 1.0 | 1.0 | 0.00 | 0.00 | 0.00 | 78 | 1037.6 |
| 20260506042137 | 61 | 185 | 0.0 | 0.0 | 0.00 | 0.00 | 0.00 | 79 | 1037.7 |
| 20260506041636 | 61 | 256 | 2.0 | 2.0 | 0.00 | 0.00 | 0.00 | 79 | 1037.7 |
| 20260506041132 | 61 | 230 | 0.0 | 0.0 | 0.00 | 0.00 | 0.00 | 79 | 1037.7 |
| 20260506040630 | 60 | 229 | 1.0 | 1.0 | 0.00 | 0.00 | 0.00 | 81 | 1037.7 |